Regional Weather Roundup
Issued by NWS

Home | Current Version | Previous Version | Graphics & Text | Print | Product List | Glossary Off
Versions: 1 2 3 4 5 6 7 8 9 10 11 12 13 14 15 16 17 18 19 20 21 22 23 24 25 26 27 28 29 30 31 32 33 34 35 36 37 38 39 40 41 42 43 44 45 46 47 48 49 50

000
ASUS43 KDMX 250404
RWRIA

WEATHER ROUNDUP FOR IOWA
NATIONAL WEATHER SERVICE DES MOINES IA
  ISSUED BY NWS QUAD CITIES IA IL
1000 PM CST SAT JAN 24 2015

NOTE: "FAIR" INDICATES FEW OR NO CLOUDS BELOW 12,000 FEET WITH NO
SIGNIFICANT WEATHER AND/OR OBSTRUCTIONS TO VISIBILITY.

* - THESE STATIONS ARE NOT NWS STATIONS...THUS NOT UNDER NWS
QUALITY CONTROL.  THEY ALSO DO NOT REPORT WEATHER SUCH
AS PRECIPITATION OR FOG.

IAZ001>003-012>014-020>022-031>034-043>046-250500-
   NORTHWEST IOWA

CITY           SKY/WX    TMP DP  RH WIND       PRES   REMARKS
CARROLL *      CLOUDY    41  36  81 CALM      29.55F
CHEROKEE *     CLOUDY    35  35  99 NE5       29.55S WCI  31
DENNISON *     CLOUDY    43  36  75 SW6       29.53F WCI  39
LE MARS *      CLOUDY    41  37  87 NW6       29.56S WCI  37
ORANGE CITY *  CLOUDY    39  34  81 CALM      29.55S
SIOUX CITY     LGT RAIN  46  39  76 NW22G29   29.57R
SPENCER        LGT RAIN  37  34  89 W7        29.56S WCI  32
$$

IAZ055>058-069>071-079>083-090>094-250500-
   SOUTHWEST IOWA

CITY           SKY/WX    TMP DP  RH WIND       PRES   REMARKS
ATLANTIC *     LGT RAIN  43  39  87 SW8       29.57F WCI  38
AUDUBON *      CLOUDY    41  36  81 SW5       29.56F WCI  38
CLARINDA *     CLOUDY    45  36  70 SW6       29.63F
COUNCIL BLFS * CLOUDY    43  41  93 SW7       29.59S WCI  39
CRESTON *      CLOUDY    43  34  70 SW7       29.60F WCI  39
HARLAN *       CLOUDY    43  43 100 SW14      29.60F WCI  36
LAMONI         CLOUDY    47  30  51 W9        29.62S
RED OAK *      CLOUDY    46  39  76 W9        29.60F
$$

IAZ047>049-059>061-072>074-084-250500-
   CENTRAL IOWA

CITY           SKY/WX    TMP DP  RH WIND       PRES   REMARKS
AMES           CLOUDY    38  33  82 SW5       29.56F WCI  34
ANKENY *       CLOUDY    43  36  75 CALM      29.58F
BOONE *        CLOUDY    41  34  75 SW5       29.54F WCI  38
CHARITON *     CLOUDY    46  32  57 SW9       29.60S
DES MOINES     LGT RAIN  43  35  73 SW10      29.58F WCI  37
GRINNELL *     CLOUDY    39  31  73 S3        29.58F
KNOXVILLE *    LGT RAIN  45  32  61 W9        29.58S WCI  40
MARSHALLTOWN   CLOUDY    37  32  82 S3        29.57F
PELLA *        CLOUDY    45  31  57 W9        29.60S
PERRY *          N/A     41  37  86 SW9       29.56F WCI  35
$$

IAZ004>006-015-016-023>025-035-036-250500-
   NORTH CENTRAL IOWA

CITY           SKY/WX    TMP DP  RH WIND       PRES   REMARKS
ALGONA *       CLOUDY    36  34  93 N5        29.57S WCI  32
CLARION *      CLOUDY    36  36 100 CALM      29.56F
ESTHERVILLE    CLOUDY    33  32  96 NE3       29.57R FOG
FORT DODGE *   CLOUDY    37  32  81 CALM      29.56F
MASON CITY     CLOUDY    33  31  92 CALM      29.57F
WEBSTER CITY * CLOUDY    37  37 100 CALM      29.55S
IOWA FALLS *   CLOUDY    36  32  85 CALM      29.57F
$$

IAZ007>011-017>019-026>030-037>042-050>054-066-250500-
   NORTHEAST IOWA

CITY           SKY/WX    TMP DP  RH WIND       PRES   REMARKS
CEDAR RAPIDS   CLOUDY    34  31  88 SE5       29.58F WCI  30
CHARLES CITY * CLOUDY    34  34 100 CALM      29.59R
CLINTON *      CLOUDY    37  32  81 SE6       29.64F WCI  33
DECORAH *      CLOUDY    34  34 100 CALM      29.58S
DUBUQUE        CLOUDY    35  31  85 CALM      29.60F
MONTICELLO *   CLOUDY    34  34 100 CALM      29.60F
OELWEIN *      CLOUDY    34  34 100 SE6       29.59S WCI  29
WATERLOO       CLOUDY    33  32  96 E3        29.58S
$$

IAZ064-065-067-068-078-250500-
   EAST CENTRAL IOWA

CITY           SKY/WX    TMP DP  RH WIND       PRES   REMARKS
DAVENPORT      CLOUDY    35  31  85 S5        29.61F WCI  31
IOWA CITY      CLOUDY    33  30  88 CALM      29.61F
MT. PLEASANT * CLOUDY    38  32  79 S6        29.61F WCI  33
MUSCATINE *    CLOUDY    34  30  86 CALM      29.62S
QUAD CITIES    CLOUDY    34  30  85 E3        29.61F
$$

IAZ062-063-075>077-085>089-095>099-250500-
   SOUTHEAST IOWA

CITY           SKY/WX    TMP DP  RH WIND       PRES   REMARKS
BURLINGTON     CLOUDY    40  33  76 S7        29.62F WCI  35
FAIRFIELD *    CLOUDY    41  30  65 S7        29.60F WCI  36
FORT MADISON * CLOUDY    45  36  70 S8        29.63F
KEOKUK *       CLOUDY    43  34  70 SW7       29.62F WCI  39
OTTUMWA        CLOUDY    40  29  64 S7        29.59F WCI  35
WASHINGTON *   CLOUDY    39  34  81 S6        29.60F WCI  35
$$

ABBREVIATIONS USED IN REMARKS
   TC - TEMPERATURES IN CELSIUS
  WCI - WIND CHILL INDEX
   HX - HEAT INDEX
  VSB - VISIBILITY
$$



USA.gov is the U.S. government's official web portal to all federal, state and local government web resources and services.